カタログに戻る

STARLINK-4398

運用中通信SSO
NORAD 53466·PAYLOAD·🇺🇸 United States

打ち上げ Aug 12, 2022 から Vandenberg Space Force Base

Loading…

次のパス (今後24時間)

TLE

最新Source: CelesTrak SupGP

元期: Sep 14, 2026, 22:12 UTC

1 53466C 22099B   26257.92548611 -.00060895  00000+0 -16893-2 0  2579
2 53466  97.4818  24.7016 0000579 105.2259 334.1995 15.37006997    10

AllMySatでSTARLINK-4398をリアルタイム追跡

Download on the App Store